Regional Weather Roundup
Issued by NWS

Home | Current Version | Previous Version | Text Only | Print | Product List | Glossary On
Versions: 1 2 3 4 5 6 7 8 9 10 11 12 13 14 15 16 17 18 19 20 21 22 23 24 25 26 27 28 29 30 31 32 33 34 35 36 37 38 39 40 41 42 43 44 45 46 47 48 49 50
000
ASUS44 KLIX 220410
RWRLA
LOUISIANA WEATHER ROUNDUP
NATIONAL WEATHER SERVICE NEW ORLEANS LA
1100 PM CDT TUE OCT 21 2014

NOTE: "FAIR" INDICATES FEW OR NO CLOUDS BELOW 12,000 FEET WITH NO
      SIGNIFICANT WEATHER AND/OR OBSTRUCTIONS TO VISIBILITY.
      SKY/WX - SKY CONDITION AND SIGNIFICANT WEATHER.
      TMP - AIR TEMPERATURE.    DP   - DEWPOINT TEMPERATURE.
      RH  - RELATIVE HUMIDITY.  PRES - PRESSURE.
      HX  - HEAT INDEX.         WCI  - WIND CHILL INDEX.

*  THESE STATIONS ARE NOT NWS OR FAA STATIONS AND ARE NOT UNDER
   NWS QUALITY CONTROL.

LAZ040-048-061>063-065-066-069-220500-
SOUTHEAST LOUISIANA

CITY           SKY/WX    TMP DP  RH WIND       PRES   REMARKS
N.O. AUDUBON     N/A     64  62  91 MISG        N/A
N.O. INTL ARPT PTCLDY    65  57  75 CALM      30.03S
N.O. LAKEFRONT CLEAR     70  57  63 CALM      30.04R
N.O. DOWNTOWN* FAIR      70  54  56 CALM      30.04S
SLIDELL        CLEAR     58  54  86 CALM      30.04R
BATON ROUGE    CLEAR     61  57  87 NE3       30.05R
BOOTHVILLE     CLEAR     69  63  81 N3        30.02S
BELLE CHASSE   CLEAR     58  54  86 CALM      30.03S
BOGALUSA*        N/A     57  54  89 N3        30.05F
NEW ROADS*     FAIR      65  59  81 NE6       30.05S
GONZALES*      FAIR      60  60 100 CALM      30.04S
HAMMOND*       CLEAR     61  55  82 N3        30.06R
HOUMA*         CLEAR     60  58  91 CALM      30.03S
PORT FOURCHON* CLEAR     72  61  68 NE5       30.05S

$$

LAZ041-044-053-054-220500-
SOUTHWEST LOUISIANA

CITY           SKY/WX    TMP DP  RH WIND       PRES   REMARKS
LAKE CHARLES   CLEAR     63  60  90 CALM      30.04S
LAFAYETTE      CLEAR     63  61  93 CALM      30.05R
PATTERSON      CLEAR     61  59  94 CALM      30.06S
SALT POINT       N/A     66  61  84 CALM      30.03R
NEW IBERIA     CLEAR     67  60  78 NE8       30.05R
CHENAULT AIRPK CLEAR     65  62  91 CALM      30.05S

$$

LAZ027-028-220500-
CENTRAL LOUISIANA

CITY           SKY/WX    TMP DP  RH WIND       PRES   REMARKS
FORT POLK      CLEAR     66  61  86 NE3       30.05S
ALEXANDRIA INT CLEAR     63  60  90 NE3       30.05R
ALEXANDRIA     PTCLDY    59  58  96 CALM      30.06S

$$

LAZ001-002-220500-
NORTHWEST LOUISIANA

CITY           SKY/WX    TMP DP  RH WIND       PRES   REMARKS
SHREVEPORT     CLEAR     64  61  90 CALM      30.07R
BARKSDALE AFB  CLEAR     63  62  96 CALM      30.07S
DTN SHREVEPORT CLEAR     61  60  97 CALM      30.07S

$$

LAZ014-016-220500-
NORTHEAST LOUISIANA

CITY           SKY/WX    TMP DP  RH WIND       PRES   REMARKS
MONROE         PTCLDY    57  57 100 NE3       30.08S FOG
TALLULAH       CLEAR     55  54  96 CALM      30.07R

$$




USA.gov is the U.S. government's official web portal to all federal, state and local government web resources and services.